Starlink 32877

operational
NORAD ID: 62960 Int'l Des: 2025-029 Owner: SPXS Country: US Constellation: starlink
LEOCIRCULAR

About Starlink 32877

Description loading...

Live Position

Loading 3D Globe...

Upcoming Passes

Altitude History

Altitude vs Time

uPlot chart will show altitude changes over time

Two-Line Element Set

1 62960U 25029N 25259.88603377 .00017109 00000-0 58893-3 0 9990
2 62960 53.1619 320.0287 0001289 100.7308 259.3838 15.30172926 34686
Epoch: Sep 16, 2025 • Age: 29 hours

Current Status

Altitude 493.6 km
Velocity 7.62 km/s
Sub-Earth Point -50.64°S, 149.05°W
Launch Date Feb 11, 2025
Age 0.5 years
Type internet

Technical Details

Classification Payload
Mass 730.00 kg
Dry Mass 700.00 kg
Total Mass 730.00 kg
Length 0.30 m
Diameter 4.10 m
Span 29.00 m
Shape Box + pan
Manufacturer SPXS
Bus Type Starlink V2M
Phase Status In Orbit
Owner/State SPXS/US

Large Constellations

Loading constellations...